When you browse on this site, cookies collect data to enhance your experience and personalize the content and advertising you see.
Visit our Privacy Policy to learn more. By continuing to use the site, you agree to this use of cookies and data.
  • In Switzerland
  • List of Countries
  • For 7 days
  • Water Temperature
  • Weather Map
  • Weather Widgets
  • user-avatar
    Login

    Hourly Weather Sevan

    Today, 22 October, Tuesday

    Time Temperature Precipitation Wind Pressure Humidity
    00:00 +11°C° 0 mm 3 mps 644 mmHg 76%
    01:00 +10°C° 0 mm 2 mps 644 mmHg 77%
    02:00 +10°C° 0 mm 2 mps 644 mmHg 79%
    03:00 +10°C° 0 mm 2 mps 643 mmHg 77%
    04:00 +9°C° 0 mm 2 mps 643 mmHg 78%
    05:00 +9°C° 0 mm 2 mps 643 mmHg 79%
    06:00 +9°C° 0 mm 2 mps 643 mmHg 80%
    07:00 +10°C° 0 mm 2 mps 644 mmHg 74%
    08:00 +12°C° 0 mm 1 mps 644 mmHg 68%
    09:00 +13°C° 0 mm 1 mps 645 mmHg 62%
    10:00 +14°C° 0 mm 1 mps 645 mmHg 61%
    11:00 +15°C° 0 mm 2 mps 645 mmHg 59%
    12:00 +15°C° 0 mm 2 mps 645 mmHg 57%
    13:00 +15°C° 0 mm 2 mps 645 mmHg 56%
    14:00 +16°C° 0 mm 2 mps 644 mmHg 56%
    15:00 +16°C° 0 mm 2 mps 644 mmHg 55%
    16:00 +15°C° 0.1 mm 1 mps 644 mmHg 59%
    17:00 +14°C° 0.1 mm 1 mps 644 mmHg 64%
    18:00 +13°C° 0.1 mm 1 mps 644 mmHg 68%
    19:00 +12°C° 0 mm 1 mps 644 mmHg 70%
    20:00 +12°C° 0 mm 1 mps 644 mmHg 71%
    21:00 +12°C° 0 mm 1 mps 644 mmHg 72%
    22:00 +11°C° 0 mm 1 mps 644 mmHg 73%
    23:00 +11°C° 0 mm 1 mps 644 mmHg 75%

    Tomorrow, 23 October, Wednesday

    Time Temperature Precipitation Wind Pressure Humidity
    00:00 +10°C° 0 mm 1 mps 643 mmHg 77%
    01:00 +10°C° 0 mm 1 mps 643 mmHg 77%
    02:00 +10°C° 0 mm 1 mps 643 mmHg 78%
    03:00 +9°C° 0 mm 1 mps 643 mmHg 78%
    04:00 +9°C° 0 mm 1 mps 643 mmHg 79%
    05:00 +9°C° 0 mm 1 mps 643 mmHg 79%
    06:00 +8°C° 0 mm 1 mps 642 mmHg 80%
    07:00 +10°C° 0 mm 1 mps 643 mmHg 73%
    08:00 +12°C° 0 mm 1 mps 644 mmHg 66%
    09:00 +14°C° 0 mm 1 mps 645 mmHg 60%
    10:00 +15°C° 0 mm 1 mps 644 mmHg 56%
    11:00 +16°C° 0 mm 2 mps 644 mmHg 53%
    12:00 +17°C° 0 mm 2 mps 644 mmHg 50%
    13:00 +17°C° 0.1 mm 2 mps 644 mmHg 49%
    14:00 +17°C° 0.1 mm 2 mps 644 mmHg 48%
    15:00 +18°C° 0.1 mm 1 mps 644 mmHg 47%
    16:00 +15°C° 0 mm 1 mps 643 mmHg 52%
    17:00 +14°C° 0 mm 1 mps 643 mmHg 57%
    18:00 +12°C° 0 mm 1 mps 643 mmHg 63%
    19:00 +12°C° 0 mm 1 mps 643 mmHg 64%
    20:00 +11°C° 0 mm 1 mps 643 mmHg 66%
    21:00 +10°C° 0 mm 2 mps 643 mmHg 68%
    22:00 +9°C° 0 mm 2 mps 643 mmHg 68%
    23:00 +9°C° 0 mm 2 mps 643 mmHg 68%

    Day after tomorrow, 24 October, Thursday

    Time Temperature Precipitation Wind Pressure Humidity
    00:00 +9°C° 0 mm 2 mps 643 mmHg 69%
    01:00 +8°C° 0 mm 2 mps 643 mmHg 69%
    02:00 +8°C° 0 mm 2 mps 643 mmHg 69%
    03:00 +8°C° 0 mm 2 mps 643 mmHg 69%
    04:00 +7°C° 0 mm 2 mps 643 mmHg 68%
    05:00 +8°C° 0 mm 1 mps 643 mmHg 67%
    06:00 +8°C° 0 mm 1 mps 643 mmHg 67%
    07:00 +10°C° 0 mm 1 mps 643 mmHg 61%
    08:00 +12°C° 0 mm 1 mps 644 mmHg 54%
    09:00 +13°C° 0 mm 1 mps 644 mmHg 48%
    10:00 +14°C° 0 mm 1 mps 644 mmHg 46%
    11:00 +15°C° 0 mm 1 mps 644 mmHg 45%
    12:00 +16°C° 0 mm 2 mps 644 mmHg 43%
    13:00 +16°C° 0 mm 2 mps 644 mmHg 43%
    14:00 +17°C° 0 mm 2 mps 644 mmHg 43%
    15:00 +17°C° 0 mm 2 mps 644 mmHg 43%
    16:00 +15°C° 0 mm 1 mps 643 mmHg 49%
    17:00 +14°C° 0 mm 1 mps 643 mmHg 55%
    18:00 +11°C° 0 mm 0 mps 642 mmHg 61%
    19:00 +12°C° 0 mm 1 mps 642 mmHg 63%
    20:00 +11°C° 0 mm 1 mps 643 mmHg 65%
    21:00 +11°C° 0 mm 1 mps 643 mmHg 68%
    22:00 +11°C° 0 mm 1 mps 642 mmHg 68%
    23:00 +11°C° 0 mm 1 mps 642 mmHg 69%

    25 October, Friday

    Time Temperature Precipitation Wind Pressure Humidity
    00:00 +10°C° 0 mm 1 mps 642 mmHg 70%
    01:00 +10°C° 0 mm 1 mps 642 mmHg 71%
    02:00 +10°C° 0 mm 1 mps 642 mmHg 72%
    03:00 +9°C° 0 mm 1 mps 642 mmHg 73%
    04:00 +9°C° 0 mm 1 mps 642 mmHg 74%
    05:00 +9°C° 0 mm 1 mps 641 mmHg 74%
    06:00 +9°C° 0 mm 1 mps 641 mmHg 75%
    07:00 +11°C° 0 mm 1 mps 642 mmHg 69%
    08:00 +12°C° 0 mm 1 mps 643 mmHg 62%
    09:00 +14°C° 0 mm 1 mps 643 mmHg 56%
    10:00 +15°C° 0 mm 2 mps 643 mmHg 53%
    11:00 +16°C° 0 mm 2 mps 643 mmHg 51%
    12:00 +17°C° 0 mm 2 mps 643 mmHg 48%
    13:00 +17°C° 0 mm 2 mps 643 mmHg 47%
    14:00 +17°C° 0 mm 2 mps 643 mmHg 46%
    15:00 +18°C° 0 mm 2 mps 642 mmHg 44%
    16:00 +16°C° 0 mm 1 mps 642 mmHg 50%
    17:00 +14°C° 0 mm 1 mps 641 mmHg 55%
    18:00 +12°C° 0 mm 0 mps 641 mmHg 61%
    19:00 +13°C° 0 mm 1 mps 641 mmHg 61%
    20:00 +13°C° 0 mm 1 mps 641 mmHg 60%
    21:00 +13°C° 0 mm 1 mps 642 mmHg 60%
    22:00 +12°C° 0 mm 1 mps 642 mmHg 61%
    23:00 +12°C° 0 mm 1 mps 641 mmHg 62%

    26 October, Saturday

    Time Temperature Precipitation Wind Pressure Humidity
    00:00 +12°C° 0 mm 1 mps 641 mmHg 64%
    01:00 +10°C° 0 mm 2 mps 641 mmHg 65%
    02:00 +10°C° 0 mm 2 mps 641 mmHg 67%
    03:00 +10°C° 0 mm 2 mps 641 mmHg 69%
    04:00 +10°C° 0 mm 2 mps 641 mmHg 71%
    05:00 +10°C° 0 mm 2 mps 641 mmHg 72%
    06:00 +9°C° 0 mm 2 mps 641 mmHg 73%
    07:00 +12°C° 0 mm 2 mps 641 mmHg 69%
    08:00 +13°C° 0 mm 2 mps 642 mmHg 65%
    09:00 +14°C° 0 mm 1 mps 642 mmHg 61%
    10:00 +15°C° 0.1 mm 2 mps 642 mmHg 58%
    11:00 +15°C° 0.1 mm 2 mps 642 mmHg 56%
    12:00 +16°C° 0.1 mm 2 mps 643 mmHg 54%
    13:00 +16°C° 0.3 mm 2 mps 642 mmHg 55%
    14:00 +16°C° 0.3 mm 2 mps 642 mmHg 56%
    15:00 +16°C° 0.3 mm 2 mps 642 mmHg 57%
    16:00 +15°C° 0.2 mm 2 mps 642 mmHg 61%
    17:00 +14°C° 0.2 mm 2 mps 641 mmHg 66%
    18:00 +12°C° 0.2 mm 2 mps 641 mmHg 71%
    19:00 +12°C° 0.1 mm 2 mps 641 mmHg 73%
    20:00 +12°C° 0.1 mm 2 mps 641 mmHg 74%
    21:00 +10°C° 0.1 mm 2 mps 641 mmHg 76%
    22:00 +10°C° 0 mm 2 mps 641 mmHg 76%
    23:00 +11°C° 0 mm 1 mps 641 mmHg 77%

    27 October, Sunday

    Time Temperature Precipitation Wind Pressure Humidity
    00:00 +11°C° 0 mm 1 mps 641 mmHg 77%
    01:00 +11°C° 0 mm 1 mps 640 mmHg 78%
    02:00 +10°C° 0 mm 1 mps 640 mmHg 80%
    03:00 +10°C° 0 mm 1 mps 640 mmHg 81%
    04:00 +9°C° 0 mm 1 mps 640 mmHg 81%
    05:00 +9°C° 0 mm 1 mps 640 mmHg 81%
    06:00 +9°C° 0 mm 1 mps 640 mmHg 81%
    07:00 +10°C° 0.1 mm 1 mps 640 mmHg 77%
    08:00 +11°C° 0.1 mm 1 mps 640 mmHg 73%
    09:00 +12°C° 0.1 mm 1 mps 641 mmHg 69%
    10:00 +13°C° 0.1 mm 1 mps 641 mmHg 66%
    11:00 +13°C° 0.1 mm 1 mps 641 mmHg 63%
    12:00 +14°C° 0.1 mm 1 mps 640 mmHg 61%
    13:00 +14°C° 0.1 mm 1 mps 640 mmHg 60%
    14:00 +14°C° 0.1 mm 1 mps 640 mmHg 59%
    15:00 +15°C° 0.1 mm 1 mps 640 mmHg 57%
    16:00 +14°C° 0.1 mm 1 mps 639 mmHg 62%
    17:00 +13°C° 0.1 mm 1 mps 639 mmHg 66%
    18:00 +12°C° 0.1 mm 1 mps 639 mmHg 71%
    19:00 +11°C° 0 mm 1 mps 639 mmHg 73%
    20:00 +10°C° 0 mm 2 mps 639 mmHg 74%
    21:00 +9°C° 0 mm 2 mps 639 mmHg 76%
    22:00 +9°C° 0 mm 2 mps 639 mmHg 75%
    23:00 +9°C° 0 mm 2 mps 639 mmHg 74%

    28 October, Monday

    Time Temperature Precipitation Wind Pressure Humidity
    00:00 +9°C° 0 mm 3 mps 639 mmHg 74%
    01:00 +9°C° 0 mm 2 mps 639 mmHg 74%
    02:00 +9°C° 0 mm 2 mps 639 mmHg 74%
    03:00 +9°C° 0 mm 2 mps 639 mmHg 75%
    04:00 +9°C° 0 mm 2 mps 639 mmHg 76%
    05:00 +8°C° 0 mm 2 mps 639 mmHg 76%
    06:00 +9°C° 0 mm 1 mps 639 mmHg 77%
    07:00 +10°C° 0 mm 1 mps 639 mmHg 73%
    08:00 +11°C° 0 mm 1 mps 640 mmHg 69%
    09:00 +12°C° 0 mm 1 mps 640 mmHg 65%
    10:00 +12°C° 0 mm 1 mps 640 mmHg 63%
    11:00 +13°C° 0 mm 2 mps 641 mmHg 61%
    12:00 +14°C° 0 mm 2 mps 641 mmHg 59%
    13:00 +13°C° 0.1 mm 2 mps 641 mmHg 61%
    14:00 +13°C° 0.1 mm 2 mps 640 mmHg 63%
    15:00 +13°C° 0.1 mm 2 mps 640 mmHg 65%
    16:00 +12°C° 0.1 mm 1 mps 640 mmHg 69%
    17:00 +11°C° 0.1 mm 1 mps 640 mmHg 73%
    18:00 +10°C° 0.1 mm 0 mps 640 mmHg 76%
    19:00 +9°C° 0 mm 0 mps 640 mmHg 78%
    20:00 +10°C° 0 mm 1 mps 640 mmHg 79%
    21:00 +9°C° 0 mm 1 mps 640 mmHg 81%
    22:00 +9°C° 0 mm 1 mps 640 mmHg 81%
    23:00 +8°C° 0 mm 1 mps 640 mmHg 80%
    Show more